Shirley, NY

8:46 AM EDT on July 22, 2017 (GMT -0400)
Brookhaven

Weather History for KHWV - August, 2013

Change the Weather History Date:

Thursday, August 29, 2013

  Actual Average (KISP) Record (KISP)
Temperature  
Mean Temperature 72 °F -  
Max Temperature 78 °F 77 °F 91 °F (2010)
Min Temperature 66 °F 61 °F 46 °F (1986)
Cooling Degree Days 7    
Growing Degree Days 22 (Base 50)    
Moisture  
Dew Point 66 °F    
Average Humidity 87    
Maximum Humidity 100    
Minimum Humidity 64    
Precipitation  
Precipitation 0.01 in - - ()
Sea Level Pressure  
Sea Level Pressure 29.98 in    
Wind  
Wind Speed 2 mph (ENE)    
Max Wind Speed 8 mph    
Max Gust Speed -    
Visibility 7 miles    
Events Fog , Rain    
Averages and records for this station are not official NWS values.
T = Trace of Precipitation, MM = Missing Value Source: NWS Daily Summary

Daily Weather History Graph

Daily Weather History Graph

Search for Another Location

Airport or City:

Trip Planner

Search our weather history database for the weather conditions in past years. The results will help you decide how hot, cold, wet, or windy it might be!

Date:

Astronomy

Aug. 29, 2013 Rise Set
Actual Time 6:15 AM EDT 7:28 PM EDT
Civil Twilight 5:47 AM EDT 7:56 PM EDT
Nautical Twilight 5:13 AM EDT 8:30 PM EDT
Astronomical Twilight 4:37 AM EDT 9:05 PM EDT
Moon 12:03 AM EDT (8/29) 2:55 PM EDT (8/29)
Length of Visible Light 14h 09m
Length of Day
13h 12m
Last Quarter, 38% of the Moon is Illuminated
Aug 29
Last Quarter
Sep 5
New
Sep 12
First Quarter
Sep 19
Full
Sep 26
Last Quarter

Hourly Weather History & Observations

Time (EDT) Temp. Dew Point Humidity Pressure Visibility Wind Dir Wind Speed Gust Speed Precip Events Conditions
12:30 AM 71.6 °F 69.8 °F 94% 29.91 in 1.8 mi Calm Calm - N/A   Overcast
12:45 AM 71.6 °F 69.8 °F 94% 29.92 in 0.8 mi Calm Calm - N/A   Overcast
12:56 AM 70.0 °F 69.1 °F 97% 29.91 in 0.5 mi Calm Calm - N/A Fog Fog
1:36 AM 71.6 °F 69.8 °F 94% 29.92 in 2.0 mi Variable 3.5 mph - N/A   Overcast
1:41 AM 71.6 °F 69.8 °F 94% 29.92 in 4.0 mi Calm Calm - N/A   Overcast
1:56 AM 70.0 °F 69.1 °F 97% 29.92 in 5.0 mi ENE 3.5 mph - N/A   Overcast
2:11 AM 69.8 °F 69.8 °F 100% 29.92 in 5.0 mi Calm Calm - N/A   Overcast
2:56 AM 71.1 °F 69.1 °F 93% 29.93 in 7.0 mi Variable 3.5 mph - N/A   Overcast
3:28 AM 69.8 °F 68.0 °F 94% 29.93 in 5.0 mi Variable 4.6 mph - N/A   Overcast
3:45 AM 69.8 °F 68.0 °F 94% 29.94 in 2.5 mi ESE 6.9 mph - N/A   Overcast
3:56 AM 69.1 °F 66.9 °F 93% 29.94 in 2.5 mi ESE 5.8 mph - N/A   Overcast
4:04 AM 69.8 °F 66.2 °F 88% 29.94 in 3.0 mi Variable 4.6 mph - N/A   Overcast
4:56 AM 66.9 °F 66.0 °F 97% 29.94 in 6.0 mi Variable 5.8 mph - N/A   Overcast
5:05 AM 66.2 °F 66.2 °F 100% 29.94 in 8.0 mi Variable 5.8 mph - N/A   Overcast
5:56 AM 66.9 °F 66.0 °F 97% 29.95 in 3.0 mi Calm Calm - N/A   Overcast
6:08 AM 66.2 °F 66.2 °F 100% 29.95 in 2.5 mi Calm Calm - N/A   Overcast
6:43 AM 66.2 °F 66.2 °F 100% 29.97 in 3.0 mi Calm Calm - N/A   Overcast
6:56 AM 66.9 °F 66.0 °F 97% 29.97 in 2.5 mi Calm Calm - N/A   Overcast
7:32 AM 68.0 °F 66.2 °F 94% 29.98 in 1.5 mi Variable 3.5 mph - 0.00 in Rain Light Rain
7:45 AM 68.0 °F 66.2 °F 94% 29.99 in 3.0 mi Variable 4.6 mph - 0.00 in Rain Light Rain
7:56 AM 66.9 °F 64.9 °F 93% 30.00 in 4.0 mi Variable 3.5 mph - 0.00 in   Overcast
8:43 AM 68.0 °F 66.2 °F 94% 30.01 in 10.0 mi Calm Calm - 0.01 in   Overcast
8:56 AM 69.1 °F 66.0 °F 90% 30.01 in 10.0 mi Calm Calm - 0.01 in   Overcast
9:56 AM 71.1 °F 64.0 °F 78% 30.01 in 10.0 mi Variable 5.8 mph - N/A   Overcast
10:56 AM 71.1 °F 64.9 °F 81% 30.02 in 10.0 mi Variable 4.6 mph - N/A   Overcast
11:56 AM 71.1 °F 64.0 °F 78% 30.02 in 10.0 mi Variable 5.8 mph - N/A   Overcast
12:56 PM 73.0 °F 64.0 °F 73% 30.02 in 10.0 mi NNE 5.8 mph - N/A   Overcast
1:56 PM 73.9 °F 64.0 °F 71% 30.01 in 10.0 mi North 6.9 mph - N/A   Overcast
2:43 PM 75.2 °F 64.4 °F 69% 30.01 in 10.0 mi Variable 5.8 mph - N/A   Overcast
2:56 PM 75.9 °F 64.0 °F 67% 30.01 in 10.0 mi North 8.1 mph - N/A   Overcast
3:56 PM 75.9 °F 64.0 °F 67% 30.01 in 10.0 mi Variable 5.8 mph - N/A   Overcast
4:56 PM 78.1 °F 64.9 °F 64% 30.01 in 10.0 mi Variable 4.6 mph - N/A   Scattered Clouds
5:56 PM 73.9 °F 64.0 °F 71% 30.01 in 10.0 mi Variable 3.5 mph - N/A   Overcast
6:56 PM 71.1 °F 64.0 °F 78% 30.02 in 10.0 mi East 5.8 mph - N/A   Mostly Cloudy
7:10 PM 71.6 °F 64.4 °F 78% 30.03 in 10.0 mi Calm Calm - N/A   Scattered Clouds
7:56 PM 68.0 °F 63.0 °F 84% 30.03 in 10.0 mi Calm Calm - N/A   Clear
8:25 PM 68.0 °F 62.6 °F 83% 30.04 in 10.0 mi Calm Calm - N/A   Mostly Cloudy
8:56 PM 68.0 °F 63.0 °F 84% 30.04 in 10.0 mi Calm Calm - N/A   Mostly Cloudy
9:56 PM 66.0 °F 63.0 °F 90% 30.04 in 10.0 mi Calm Calm - N/A   Scattered Clouds
10:03 PM 66.2 °F 62.6 °F 88% 30.04 in 10.0 mi Calm Calm - N/A   Mostly Cloudy
10:44 PM 66.2 °F 62.6 °F 88% 30.05 in 10.0 mi Calm Calm - N/A   Overcast
10:56 PM 66.0 °F 63.0 °F 90% 30.05 in 10.0 mi Calm Calm - N/A   Overcast
11:56 PM 66.0 °F 62.1 °F 87% 30.04 in 10.0 mi Calm Calm - N/A   Overcast